Wind_Speed
83 82 75 69 67 62 55 52 48 51 58 68 79 85 87 93 94 93 82 83 83 80 70 65 68 66 58 60 59 54 48 41 35 35 33 28 26 25 18 19 7 1 9 13 12
83 75 70 66 54 49 48 49 48 45 51 61 70 75 85 92 92 89 89 89 82 80 73 64 71 70 61 61 60 49 48 50 43 40 34 30 28 22 17 18 3 4 13 16 16
84 74 69 59 48 44 45 47 46 46 50 59 65 70 77 88 93 95 91 88 83 82 77 70 69 72 68 65 61 50 47 50 47 39 35 31 26 21 18 19 4 3 13 17 16
85 77 68 56 49 44 41 46 48 47 52 59 64 68 74 80 91 96 94 91 87 83 77 71 69 69 69 67 60 55 54 48 45 42 37 32 29 24 17 14 8 12 15 18 21
88 77 66 58 51 40 34 39 46 51 54 60 65 69 73 77 84 94 94 92 88 83 77 68 70 68 68 67 68 60 56 51 46 43 37 35 32 28 17 21 13 18 20 23 23
93 81 68 62 52 38 28 29 38 49 54 60 66 70 73 81 88 95 93 91 89 88 79 75 73 67 70 71 70 65 56 51 51 45 39 36 33 26 21 21 15 20 22 22 22
96 85 70 64 51 36 23 21 29 43 54 61 67 72 78 82 89 98 92 92 90 89 79 77 84 73 73 75 74 67 60 54 50 48 41 38 34 29 27 24 21 25 26 26 25
98 89 72 65 49 35 21 16 22 34 48 63 68 75 81 84 85 95 94 92 94 92 86 85 88 85 72 79 78 71 64 56 55 48 42 38 37 31 27 27 27 28 29 29 24
103 89 73 67 50 35 20 11 17 28 43 62 71 75 78 84 88 92 93 94 95 96 92 91 87 87 75 83 77 69 59 53 53 51 46 42 40 36 31 30 31 31 28 27 28
108 90 76 70 53 37 22 10 12 24 42 60 74 74 78 86 87 90 91 94 97 102 98 92 90 81 81 80 66 56 52 56 54 52 48 46 44 39 35 31 32 34 31 29 30
114 95 81 74 57 41 27 11 6 22 38 57 74 78 77 83 88 97 97 95 102 106 95 89 91 79 70 75 73 66 65 66 64 60 55 52 48 43 39 34 31 29 32 33 31
118 103 88 76 63 47 32 16 3 17 36 53 71 77 78 83 91 98 100 99 106 107 98 90 88 86 80 75 75 74 74 69 67 63 60 58 54 48 43 38 35 33 34 32 32
123 111 92 79 69 52 37 21 7 12 32 49 68 76 77 82 92 100 99 100 105 107 94 84 90 90 89 86 82 82 76 71 65 64 64 62 58 52 46 41 38 34 30 26 31
124 117 99 85 72 57 41 25 10 8 27 44 59 74 74 81 87 99 104 102 104 104 99 94 102 97 92 84 83 81 77 77 74 70 66 64 57 53 48 45 41 38 31 28 32
129 119 108 87 74 63 46 29 14 6 22 40 56 72 75 78 84 95 98 100 102 105 99 93 89 93 87 78 84 84 85 84 80 75 69 65 59 55 50 46 43 39 34 33 35
129 126 114 95 78 67 51 36 20 5 16 35 51 71 75 78 89 96 100 101 99 106 100 98 94 101 88 88 92 94 95 89 84 80 70 62 58 54 47 48 47 44 40 39 38
125 130 118 103 83 71 61 40 26 9 9 32 48 67 77 80 86 94 95 99 101 105 104 104 101 103 100 95 94 94 96 88 85 79 69 63 58 53 53 53 51 50 49 46 44
122 128 128 113 91 75 63 48 33 15 4 24 44 62 76 81 85 89 92 95 99 107 105 104 106 107 102 94 81 77 85 81 74 71 68 65 59 56 58 58 54 51 51 48 46
124 125 131 127 101 82 64 61 40 23 4 14 38 56 72 78 81 87 89 95 102 110 110 104 102 104 103 96 92 90 84 83 82 81 76 65 63 65 62 59 57 55 53 54 53
123 124 128 130 112 92 74 60 48 32 12 6 31 51 68 77 81 84 93 98 100 105 107 106 103 102 101 109 109 102 92 91 86 87 76 71 65 63 63 62 63 61 59 58 59
120 124 124 125 121 104 83 64 56 38 22 2 19 45 66 76 81 85 92 93 96 98 106 104 102 102 103 98 104 102 95 89 87 89 82 72 68 68 68 69 67 65 64 62 62
117 120 122 121 124 121 100 71 56 49 30 10 12 36 57 75 79 84 88 90 92 98 101 106 104 104 100 96 102 101 95 91 86 80 75 74 74 74 73 72 72 71 69 67 65
116 118 123 117 120 121 109 89 68 52 41 21 3 24 47 68 83 82 85 93 93 99 98 109 108 107 106 105 106 104 98 91 88 86 86 80 77 76 78 78 78 76 75 73 71
119 118 123 118 122 120 120 102 74 56 42 29 12 13 37 53 76 83 84 91 93 98 105 104 113 108 103 98 96 92 103 98 95 96 88 84 82 81 82 84 82 81 81 79 76
121 116 122 123 121 124 115 112 96 60 46 32 18 3 23 44 63 81 82 85 93 96 99 103 107 112 109 105 104 100 99 107 106 98 97 90 85 86 86 87 89 87 85 84 82
119 118 121 124 126 122 116 115 104 80 50 37 23 8 12 34 47 70 80 86 90 94 97 103 105 115 112 107 106 104 104 102 97 109 107 102 94 93 95 95 95 94 92 89 89
118 120 124 125 128 121 119 114 113 90 65 39 28 15 2 19 39 53 74 83 86 90 94 99 103 110 118 112 110 111 104 102 97 96 104 102 100 101 99 96 97 99 97 96 95
Wind_Direction
323 318 312 304 297 289 281 271 261 247 239 234 227 227 226 224 228 228 219 220 221 222 220 211 212 205 207 211 209 210 219 221 225 245 247 253 259 264 278 279 312 208 198 201 192
327 324 316 310 299 289 280 270 260 246 235 231 227 224 222 221 224 224 218 218 217 218 215 211 211 203 201 206 205 208 215 223 226 237 239 245 255 269 265 268 263 202 213 201 187
333 327 322 315 307 297 283 269 257 240 234 228 223 223 219 217 218 220 220 217 216 216 212 209 205 200 199 203 201 205 210 220 224 228 233 237 246 253 248 258 223 155 205 196 197
337 332 328 322 317 303 280 262 251 236 227 224 221 217 215 212 214 216 215 215 213 213 210 208 196 196 200 203 204 208 211 216 222 224 224 231 235 239 247 238 209 164 192 197 195
344 338 335 331 327 312 283 258 243 235 222 217 217 215 211 211 212 213 213 211 211 210 208 202 193 192 201 205 208 208 211 211 216 219 220 227 229 235 229 239 204 181 177 187 183
346 345 342 338 334 321 290 258 237 229 218 210 212 211 209 206 209 209 211 210 208 205 205 198 196 193 205 209 201 205 206 207 209 214 215 223 227 228 220 237 212 182 173 171 173
351 350 347 344 340 328 303 263 236 224 216 204 206 206 206 206 205 204 208 206 204 203 200 197 196 197 202 205 200 202 201 203 208 208 213 220 223 219 212 219 208 184 179 180 187
355 352 351 349 347 336 318 277 239 221 212 200 201 204 205 204 206 204 205 202 201 201 198 194 195 197 203 203 201 203 202 205 212 209 217 217 215 216 213 212 207 196 185 183 181
0 355 356 356 355 347 333 291 237 216 205 199 198 201 202 202 203 203 201 200 199 200 196 194 190 196 201 203 201 199 197 199 202 212 209 213 215 215 209 211 209 211 198 186 184
3 358 1 2 360 357 349 322 230 209 200 198 196 198 198 200 200 201 199 198 198 199 199 196 192 196 197 200 203 200 199 203 206 210 209 211 213 211 211 207 211 211 205 197 199
5 1 5 5 5 4 360 349 234 199 199 196 193 197 196 197 197 196 197 199 197 199 198 196 194 195 195 202 207 203 205 202 205 207 206 208 207 207 210 209 210 211 208 209 205
8 5 4 7 8 8 6 1 294 194 198 196 194 196 193 195 195 195 196 198 197 198 198 195 189 195 199 200 203 209 205 203 200 202 205 207 208 206 207 208 205 207 210 208 205
13 7 6 9 9 12 7 5 328 202 199 198 195 196 192 195 195 197 197 196 197 198 196 194 191 196 199 200 202 204 202 202 203 206 207 207 209 210 206 211 209 208 213 211 208
15 12 11 8 11 12 10 9 346 225 198 198 196 198 194 196 196 198 196 195 197 196 196 191 194 197 198 201 204 201 208 206 205 207 209 209 209 213 208 212 210 210 205 206 203
16 16 14 10 12 14 13 8 5 271 203 197 195 197 196 195 196 199 197 198 197 196 196 193 196 193 198 199 208 205 208 205 205 207 208 207 209 212 211 213 214 213 205 204 208
16 17 15 13 13 14 15 13 8 332 209 195 196 195 195 195 196 198 197 199 198 196 196 194 196 193 194 202 208 208 207 204 205 206 205 207 210 213 214 212 211 212 209 206 211
16 17 18 15 14 16 14 16 11 360 222 201 196 196 195 196 198 199 199 199 198 196 197 196 198 197 197 203 208 210 206 205 208 208 207 207 210 214 215 216 215 213 212 212 213
15 16 19 17 15 16 16 18 14 9 250 207 198 198 197 198 198 200 201 201 198 197 200 198 201 199 201 202 209 214 216 211 213 209 206 210 209 218 217 216 218 218 218 219 219
13 15 17 18 16 15 17 19 15 13 10 209 201 200 199 199 200 199 201 200 198 198 200 201 202 205 204 206 210 212 214 216 210 212 210 213 214 216 219 218 221 221 221 220 222
12 14 16 18 18 15 17 19 19 17 18 189 203 202 203 202 200 202 201 200 198 200 201 203 201 205 206 208 208 210 216 216 214 215 211 215 215 221 223 223 223 224 222 223 224
10 14 15 15 19 18 14 17 18 22 19 124 203 204 204 204 203 204 204 202 199 201 202 206 205 207 209 212 206 209 210 212 211 211 212 215 214 221 221 226 225 227 230 227 225
9 11 12 13 14 20 17 14 19 19 23 16 184 205 205 207 206 206 206 205 202 204 204 206 209 209 212 211 210 212 210 212 215 215 215 216 215 221 223 224 229 230 230 234 233
8 11 11 12 13 15 20 16 14 16 18 20 196 199 206 208 209 208 203 207 207 207 205 207 211 210 212 213 212 212 215 213 210 213 215 214 219 223 225 225 227 231 233 233 234
7 9 10 10 11 12 14 19 16 13 16 19 15 198 205 211 211 212 207 206 209 209 209 208 210 213 214 216 218 217 216 216 218 212 215 213 218 222 224 227 228 229 233 236 237
7 6 7 8 8 9 11 14 17 16 10 17 21 300 204 208 213 213 211 209 210 211 210 212 210 214 215 214 216 216 216 217 219 219 214 217 218 225 227 228 229 230 232 234 236
3 4 7 7 8 8 9 9 12 13 13 5 15 26 226 209 213 218 215 213 213 213 212 212 213 212 214 215 215 217 217 219 222 222 218 214 215 224 227 226 228 229 230 232 234
3 4 6 4 5 6 8 9 10 11 10 8 1 8 263 220 215 215 219 218 217 217 215 214 215 213 214 215 216 216 219 222 222 222 223 223 223 226 227 228 228 231 233 235 235
Height
10481 10462 10443 10425 10409 10396 10389 10388 10392 10397 10407 10417 10430 10445 10464 10483 10500 10518 10542 10548 10557 10576 10595 10612 10624 10637 10651 10665 10675 10682 10692 10701 10707 10712 10718 10721 10723 10724 10725 10724 10720 10720 10723 10726 10727
10455 10433 10414 10398 10384 10373 10366 10365 10368 10376 10385 10395 10408 10423 10441 10461 10481 10507 10514 10523 10546 10563 10583 10598 10612 10625 10642 10655 10666 10676 10682 10690 10698 10706 10712 10716 10718 10721 10722 10722 10718 10719 10721 10725 10726
10431 10411 10392 10373 10360 10350 10344 10342 10345 10355 10365 10374 10386 10402 10423 10444 10463 10479 10499 10515 10534 10549 10567 10583 10596 10615 10631 10645 10657 10666 10671 10682 10691 10700 10706 10710 10713 10716 10718 10719 10715 10717 10721 10725 10727
10409 10389 10369 10351 10338 10326 10320 10318 10322 10332 10343 10354 10368 10384 10405 10424 10437 10460 10476 10498 10517 10536 10557 10574 10592 10609 10625 10640 10649 10654 10660 10674 10685 10694 10699 10704 10708 10711 10715 10717 10712 10715 10720 10724 10727
10392 10368 10348 10330 10315 10303 10297 10295 10298 10307 10321 10336 10352 10370 10389 10410 10428 10443 10459 10485 10505 10527 10548 10567 10583 10599 10615 10627 10638 10643 10653 10667 10677 10686 10692 10697 10702 10706 10712 10712 10710 10713 10717 10722 10725
10376 10352 10330 10311 10295 10285 10279 10277 10279 10287 10302 10320 10335 10356 10376 10390 10403 10425 10450 10471 10493 10512 10533 10553 10572 10584 10600 10613 10624 10629 10644 10657 10668 10679 10685 10691 10697 10704 10708 10708 10708 10711 10716 10720 10724
10363 10339 10317 10297 10281 10271 10265 10263 10265 10271 10286 10306 10321 10341 10357 10371 10387 10405 10431 10455 10480 10503 10525 10540 10553 10571 10590 10601 10608 10619 10635 10649 10661 10671 10678 10685 10692 10698 10702 10705 10708 10709 10713 10718 10722
10355 10331 10309 10288 10271 10261 10255 10253 10254 10261 10274 10292 10307 10322 10334 10357 10374 10392 10417 10444 10466 10489 10509 10524 10540 10557 10572 10589 10598 10610 10627 10644 10656 10665 10673 10681 10686 10693 10698 10701 10706 10707 10709 10714 10719
10353 10327 10303 10281 10264 10255 10249 10246 10247 10253 10264 10279 10292 10307 10331 10347 10365 10385 10410 10435 10456 10474 10492 10509 10527 10548 10562 10578 10590 10606 10630 10642 10650 10660 10667 10674 10679 10686 10692 10697 10702 10704 10707 10710 10714
10349 10322 10299 10277 10261 10251 10245 10242 10242 10246 10254 10265 10279 10299 10319 10332 10355 10377 10404 10425 10444 10458 10476 10501 10520 10541 10556 10574 10602 10618 10629 10636 10643 10652 10660 10666 10673 10680 10686 10693 10697 10700 10705 10708 10710
10346 10318 10297 10277 10261 10249 10243 10239 10240 10242 10250 10257 10268 10283 10307 10326 10349 10366 10389 10410 10428 10444 10472 10497 10519 10548 10567 10580 10590 10602 10610 10620 10629 10640 10648 10655 10664 10672 10678 10687 10693 10698 10701 10704 10707
10350 10320 10298 10279 10262 10249 10242 10239 10237 10241 10245 10253 10266 10279 10299 10318 10341 10359 10377 10396 10413 10435 10462 10486 10521 10533 10543 10559 10575 10589 10598 10607 10616 10626 10635 10645 10654 10664 10672 10680 10686 10691 10695 10700 10706
10356 10327 10301 10283 10265 10252 10244 10240 10238 10240 10244 10252 10263 10277 10297 10314 10332 10348 10366 10386 10406 10430 10463 10491 10510 10519 10533 10548 10564 10576 10587 10599 10610 10617 10626 10634 10646 10657 10666 10672 10681 10687 10692 10699 10702
10364 10334 10307 10288 10271 10257 10248 10242 10240 10240 10244 10253 10265 10278 10296 10307 10328 10341 10355 10376 10398 10428 10452 10472 10483 10505 10522 10539 10552 10566 10575 10586 10595 10605 10617 10629 10642 10651 10660 10667 10675 10681 10688 10693 10697
10373 10345 10318 10297 10279 10263 10252 10246 10242 10243 10245 10251 10260 10274 10291 10308 10326 10339 10359 10377 10397 10419 10443 10473 10483 10500 10517 10534 10543 10552 10560 10570 10580 10593 10607 10623 10633 10645 10654 10663 10670 10678 10683 10688 10691
10383 10354 10324 10301 10288 10271 10258 10250 10245 10245 10247 10252 10259 10268 10288 10304 10318 10333 10349 10371 10393 10415 10441 10460 10471 10482 10501 10514 10523 10533 10545 10556 10567 10581 10602 10619 10632 10641 10652 10659 10664 10670 10675 10681 10685
10389 10364 10336 10313 10292 10277 10264 10254 10249 10247 10248 10250 10257 10266 10282 10298 10315 10331 10348 10364 10385 10408 10424 10443 10456 10472 10484 10494 10507 10521 10531 10545 10559 10583 10611 10618 10627 10638 10643 10650 10657 10663 10667 10672 10677
10394 10372 10345 10322 10299 10285 10275 10261 10253 10250 10250 10254 10259 10266 10277 10290 10308 10327 10345 10361 10383 10402 10419 10435 10447 10463 10481 10497 10527 10537 10538 10562 10583 10598 10606 10608 10626 10633 10634 10640 10648 10657 10662 10668 10673
10397 10377 10353 10329 10307 10290 10281 10267 10259 10254 10253 10257 10261 10267 10277 10290 10307 10324 10339 10355 10374 10389 10406 10427 10448 10462 10481 10491 10499 10513 10531 10552 10562 10573 10584 10601 10618 10619 10625 10636 10642 10648 10655 10659 10662
10404 10382 10360 10342 10319 10301 10283 10278 10267 10258 10256 10258 10263 10267 10276 10289 10303 10318 10329 10342 10365 10384 10403 10417 10436 10451 10464 10473 10482 10507 10518 10531 10547 10565 10583 10597 10611 10619 10621 10627 10629 10635 10641 10645 10650
10414 10392 10372 10354 10331 10308 10294 10283 10273 10266 10260 10259 10265 10269 10275 10284 10298 10312 10324 10342 10362 10381 10396 10413 10430 10439 10449 10464 10487 10494 10507 10525 10539 10552 10572 10589 10604 10605 10608 10610 10617 10623 10626 10633 10640
10422 10402 10384 10364 10342 10322 10303 10289 10281 10272 10266 10263 10264 10271 10277 10285 10296 10310 10324 10341 10361 10372 10390 10405 10419 10431 10450 10464 10473 10483 10493 10510 10528 10555 10572 10583 10591 10593 10598 10602 10605 10611 10616 10620 10626
10428 10407 10390 10374 10354 10334 10317 10297 10284 10277 10272 10267 10266 10270 10277 10284 10291 10303 10323 10337 10349 10365 10379 10395 10407 10421 10429 10441 10454 10472 10493 10512 10519 10532 10545 10562 10581 10587 10587 10590 10592 10596 10601 10606 10612
10433 10414 10399 10381 10360 10341 10321 10308 10295 10285 10279 10273 10269 10270 10275 10282 10291 10301 10316 10327 10341 10352 10367 10380 10396 10413 10431 10454 10467 10483 10494 10504 10510 10515 10540 10552 10562 10568 10573 10575 10580 10583 10586 10591 10597
10433 10420 10403 10384 10367 10349 10333 10315 10298 10290 10282 10279 10274 10271 10274 10280 10288 10295 10311 10322 10331 10342 10356 10373 10388 10402 10414 10427 10440 10456 10466 10478 10487 10509 10520 10537 10546 10552 10557 10561 10562 10566 10570 10576 10580
10437 10420 10404 10388 10371 10354 10337 10321 10306 10292 10285 10279 10277 10274 10273 10277 10284 10292 10303 10310 10319 10332 10346 10359 10372 10384 10398 10412 10425 10436 10449 10459 10474 10486 10495 10508 10519 10523 10525 10535 10540 10544 10549 10556 10560
10436 10420 10405 10389 10376 10362 10348 10332 10314 10300 10288 10279 10274 10273 10273 10274 10277 10283 10292 10304 10314 10322 10334 10347 10357 10372 10386 10396 10407 10416 10438 10451 10464 10469 10476 10492 10505 10496 10501 10513 10521 10527 10537 10539 10541